Location: Erdweis
(48.5167°N, 15.3500°E)
Time: 01:32:19
(UTC+00:00)

ARIANE 5 R/B - Pass Details

Date: 18 September 2020
Orbit: 620 x 657 km, 98.2° (Epoch: 23 October)

Event Time Altitude Azimuth Distance (km) Brightness Sun altitude
Exits shadow 19:37:43 56° 26° (NNE) 747 2.9 -24.7°
Drops below altitude 10° 19:41:22 10° 351° (N) 2,003 5.7 -25.2°
Sets 19:43:34 0° 349° (N) 2,912 6.7 -25.5°
